User: anonymous   Login
Location: Cerroniocc
(13.7547°S, 72.0222°W)
Time: 00:43:07
(UTC+00:00)
Language:

MOS 1 Rocket - Orbit

View from above orbital plane
View from above orbital plane
View from above satellite
View from above satellite

Ground track
Ground track

The orbit data is extracted from the following two-line orbital elements,

1 17528U 87018B   20271.45805577 +.00000060 +00000-0 +22109-4 0  9994
2 17528 097.4076 108.6677 0152338 142.6329 218.5581 14.51000740753010
Epoch (UTC): 27 September 2020 10:59:36
Eccentricity: 0.0152338
inclination: 97.4076°
perigee height: 614 km
apogee height: 830 km
right ascension of ascending node: 108.6677°
argument of perigee: 142.6329°
revolutions per day: 14.51000740
mean anomaly at epoch: 218.5581°
orbit number at epoch: 75301

The dashed part of the orbit path shows where the satellite is in the earth's shadow,  

DLR